Glendive, MT

6:50 AM MDT on March 30, 2017 (GMT -0600)
Dawson Community

Weather History for KGDV - September, 2014

Change the Weather History Date:

Sunday, September 28, 2014

  Actual Average Record
Temperature  
Mean Temperature 50 °F -  
Max Temperature 53 °F 63 °F 91 °F (2001)
Min Temperature 48 °F 37 °F 26 °F (1999)
Degree Days  
Heating Degree Days 14    
Moisture  
Dew Point 44 °F    
Average Humidity 79    
Maximum Humidity 87    
Minimum Humidity 71    
Precipitation  
Precipitation 0.00 in - - ()
Sea Level Pressure  
Sea Level Pressure 30.28 in    
Wind  
Wind Speed 15 mph (NE)    
Max Wind Speed 21 mph    
Max Gust Speed 28 mph    
Visibility 10 miles    
Events      
Averages and records for this station are not official NWS values.
T = Trace of Precipitation, MM = Missing Value Source: NWS Daily Summary

Daily Weather History Graph

Daily Weather History Graph

Search for Another Location

Airport or City:

Trip Planner

Search our weather history database for the weather conditions in past years. The results will help you decide how hot, cold, wet, or windy it might be!

Date:

Astronomy

Sep. 28, 2014 Rise Set
Actual Time 6:54 AM MDT 6:44 PM MDT
Civil Twilight 6:23 AM MDT 7:15 PM MDT
Nautical Twilight 5:48 AM MDT 7:50 PM MDT
Astronomical Twilight 5:11 AM MDT 8:26 PM MDT
Moon 11:26 AM MDT (9/28) 9:14 PM MDT (9/28)
Length of Visible Light 12h 51m
Length of Day
11h 50m
Waxing Crescent, 19% of the Moon is Illuminated
Sep 28
Waxing Crescent
Oct 1
First Quarter
Oct 8
Full
Oct 15
Last Quarter
Oct 23
New

Hourly Weather History & Observations

Time (MDT) Temp. Dew Point Humidity Pressure Visibility Wind Dir Wind Speed Gust Speed Precip Events Conditions
12:15 AM 50.0 °F 41.0 °F 71% 30.23 in 10.0 mi NNE 20.7 mph 27.6 mph N/A   Overcast
12:35 AM 50.0 °F 41.0 °F 71% 30.23 in 10.0 mi North 20.7 mph 24.2 mph N/A   Overcast
12:55 AM 50.0 °F 41.0 °F 71% 30.24 in 10.0 mi NNE 15.0 mph 23.0 mph N/A   Overcast
1:15 AM 50.0 °F 41.0 °F 71% 30.23 in 10.0 mi NNE 18.4 mph 24.2 mph N/A   Overcast
1:35 AM 50.0 °F 41.0 °F 71% 30.23 in 10.0 mi NNE 17.3 mph - N/A   Overcast
1:55 AM 50.0 °F 41.0 °F 71% 30.24 in 10.0 mi NNE 17.3 mph 24.2 mph N/A   Overcast
2:15 AM 50.0 °F 42.8 °F 76% 30.25 in 10.0 mi NNE 16.1 mph 25.3 mph N/A   Overcast
2:35 AM 48.2 °F 42.8 °F 82% 30.24 in 10.0 mi NNE 17.3 mph - N/A   Overcast
2:55 AM 50.0 °F 42.8 °F 76% 30.24 in 10.0 mi NNE 16.1 mph - N/A   Overcast
3:15 AM 50.0 °F 42.8 °F 76% 30.25 in 10.0 mi North 15.0 mph - N/A   Overcast
3:35 AM 50.0 °F 42.8 °F 76% 30.25 in 10.0 mi NNE 16.1 mph 21.9 mph N/A   Overcast
3:55 AM 50.0 °F 42.8 °F 76% 30.25 in 10.0 mi North 17.3 mph - N/A   Overcast
4:15 AM 50.0 °F 42.8 °F 76% 30.26 in 10.0 mi North 13.8 mph - N/A   Overcast
4:35 AM 48.2 °F 42.8 °F 82% 30.26 in 10.0 mi NNE 13.8 mph - N/A   Overcast
4:55 AM 48.2 °F 42.8 °F 82% 30.26 in 10.0 mi NNE 13.8 mph - N/A   Overcast
5:15 AM 48.2 °F 42.8 °F 82% 30.26 in 10.0 mi NNE 13.8 mph - N/A   Overcast
5:35 AM 48.2 °F 42.8 °F 82% 30.26 in 10.0 mi NNE 10.4 mph - N/A   Overcast
5:55 AM 48.2 °F 42.8 °F 82% 30.27 in 10.0 mi NNE 10.4 mph - N/A   Overcast
6:15 AM 48.2 °F 42.8 °F 82% 30.27 in 10.0 mi NNE 13.8 mph 19.6 mph N/A   Overcast
6:35 AM 48.2 °F 42.8 °F 82% 30.28 in 10.0 mi NNE 15.0 mph - N/A   Overcast
6:55 AM 48.2 °F 42.8 °F 82% 30.28 in 10.0 mi North 12.7 mph - N/A   Overcast
7:15 AM 48.2 °F 42.8 °F 82% 30.28 in 10.0 mi NNE 12.7 mph - N/A   Overcast
7:35 AM 48.2 °F 42.8 °F 82% 30.28 in 10.0 mi NNE 15.0 mph - N/A   Overcast
7:55 AM 48.2 °F 42.8 °F 82% 30.28 in 10.0 mi NNE 13.8 mph - N/A   Overcast
8:15 AM 48.2 °F 42.8 °F 82% 30.29 in 10.0 mi NNE 13.8 mph 18.4 mph N/A   Overcast
8:35 AM 48.2 °F 42.8 °F 82% 30.29 in 10.0 mi NNE 12.7 mph - N/A   Overcast
8:55 AM 48.2 °F 42.8 °F 82% 30.30 in 10.0 mi NNE 11.5 mph - N/A   Overcast
9:15 AM 48.2 °F 42.8 °F 82% 30.29 in 10.0 mi NNE 13.8 mph - N/A   Overcast
9:35 AM 48.2 °F 42.8 °F 82% 30.30 in 10.0 mi NNE 12.7 mph - N/A   Overcast
9:55 AM 48.2 °F 44.6 °F 87% 30.30 in 10.0 mi NNE 13.8 mph - N/A   Overcast
10:15 AM 48.2 °F 44.6 °F 87% 30.31 in 10.0 mi NNE 12.7 mph - N/A   Overcast
10:35 AM 48.2 °F 44.6 °F 87% 30.31 in 10.0 mi NE 10.4 mph - N/A   Overcast
10:55 AM 48.2 °F 44.6 °F 87% 30.32 in 10.0 mi NE 11.5 mph - N/A   Overcast
11:15 AM 48.2 °F 44.6 °F 87% 30.31 in 10.0 mi NNE 10.4 mph - N/A   Overcast
11:35 AM 50.0 °F 44.6 °F 82% 30.32 in 10.0 mi NE 11.5 mph - N/A   Overcast
11:55 AM 50.0 °F 44.6 °F 82% 30.32 in 10.0 mi NE 11.5 mph - N/A   Overcast
12:15 PM 51.8 °F 44.6 °F 76% 30.32 in 10.0 mi NE 11.5 mph - N/A   Overcast
12:35 PM 51.8 °F 46.4 °F 82% 30.31 in 10.0 mi NE 15.0 mph - N/A   Overcast
12:55 PM 51.8 °F 46.4 °F 82% 30.30 in 10.0 mi NE 15.0 mph - N/A   Overcast
1:15 PM 51.8 °F 44.6 °F 76% 30.30 in 10.0 mi NE 12.7 mph - N/A   Overcast
1:35 PM 53.6 °F 44.6 °F 72% 30.29 in 10.0 mi NE 12.7 mph - N/A   Overcast
1:55 PM 53.6 °F 46.4 °F 77% 30.29 in 10.0 mi NE 13.8 mph - N/A   Overcast
2:15 PM 53.6 °F 44.6 °F 72% 30.29 in 10.0 mi ENE 12.7 mph - N/A   Overcast
2:35 PM 53.6 °F 46.4 °F 77% 30.29 in 10.0 mi NE 12.7 mph - N/A   Overcast
2:55 PM 53.6 °F 46.4 °F 77% 30.29 in 10.0 mi NE 12.7 mph - N/A   Overcast
3:15 PM 53.6 °F 46.4 °F 77% 30.29 in 10.0 mi NE 12.7 mph - N/A   Overcast
3:35 PM 53.6 °F 46.4 °F 77% 30.28 in 10.0 mi NE 13.8 mph - N/A   Overcast
3:55 PM 53.6 °F 46.4 °F 77% 30.28 in 10.0 mi NE 11.5 mph - N/A   Overcast
4:15 PM 53.6 °F 44.6 °F 72% 30.28 in 10.0 mi NE 13.8 mph - N/A   Overcast
4:35 PM 53.6 °F 44.6 °F 72% 30.28 in 10.0 mi NE 12.7 mph - N/A   Overcast
4:55 PM 53.6 °F 44.6 °F 72% 30.28 in 10.0 mi NE 11.5 mph - N/A   Overcast
5:15 PM 53.6 °F 44.6 °F 72% 30.28 in 10.0 mi NE 12.7 mph - N/A   Overcast
5:35 PM 53.6 °F 44.6 °F 72% 30.27 in 10.0 mi NE 13.8 mph - N/A   Overcast
5:55 PM 51.8 °F 44.6 °F 76% 30.28 in 10.0 mi NE 12.7 mph - N/A   Overcast
6:15 PM 51.8 °F 44.6 °F 76% 30.27 in 10.0 mi NNE 15.0 mph - N/A   Overcast
6:35 PM 51.8 °F 44.6 °F 76% 30.27 in 10.0 mi NE 15.0 mph 19.6 mph N/A   Overcast
6:55 PM 51.8 °F 44.6 °F 76% 30.27 in 10.0 mi NE 15.0 mph - N/A   Overcast
7:15 PM 51.8 °F 42.8 °F 71% 30.27 in 10.0 mi NNE 15.0 mph - N/A   Overcast
7:35 PM 50.0 °F 44.6 °F 82% 30.28 in 10.0 mi NE 12.7 mph 18.4 mph N/A   Overcast
7:55 PM 50.0 °F 42.8 °F 76% 30.28 in 10.0 mi NE 13.8 mph - N/A   Overcast
8:15 PM 48.2 °F 44.6 °F 87% 30.28 in 10.0 mi NE 16.1 mph - N/A   Overcast
8:35 PM 48.2 °F 44.6 °F 87% 30.28 in 10.0 mi NE 15.0 mph - N/A   Overcast
8:55 PM 48.2 °F 44.6 °F 87% 30.28 in 10.0 mi NE 15.0 mph - N/A   Overcast
9:15 PM 48.2 °F 42.8 °F 82% 30.28 in 10.0 mi NE 15.0 mph - N/A   Overcast
9:35 PM 48.2 °F 44.6 °F 87% 30.29 in 10.0 mi ENE 12.7 mph - N/A   Overcast
9:55 PM 48.2 °F 42.8 °F 82% 30.28 in 10.0 mi ENE 11.5 mph - N/A   Overcast
10:15 PM 48.2 °F 42.8 °F 82% 30.28 in 10.0 mi ENE 12.7 mph - N/A   Overcast
10:35 PM 48.2 °F 42.8 °F 82% 30.28 in 10.0 mi ENE 13.8 mph - N/A   Overcast
10:55 PM 48.2 °F 42.8 °F 82% 30.27 in 10.0 mi ENE 13.8 mph - N/A   Overcast
11:15 PM 48.2 °F 42.8 °F 82% 30.26 in 10.0 mi East 12.7 mph 17.3 mph N/A   Overcast
11:35 PM 48.2 °F 42.8 °F 82% 30.26 in 10.0 mi East 15.0 mph - N/A   Overcast
11:55 PM 48.2 °F 42.8 °F 82% 30.25 in 10.0 mi East 13.8 mph - N/A   Overcast